www.pogodaiklimat.ru

Погода и климат >> Архив погоды >> Таиланд >> Канчанабури


ПОГОДА в Канчанабури

  • Прогноз погоды в Канчанабури
  • Монитор погоды в Канчанабури

АРХИВ ПОГОДЫ в Канчанабури

Время (UTC), дата Ветер
(напр.,м/с)
 
Видим.   Явления Облачность Т
(С)
Тd
(С)
f
(%)
Тe
(С)
Тes
(С)
Комфортность P
(гПа)
Po
(гПа)
Тmin
(С)
Tmax
(С)
R
(мм)
R24
(мм)
S
(см)
03 18.06 ЮЗ 4 12 км 8/3 600 м
[Cu Sc Cs]
+29.5 +24.5 75 +42 +48 опасность
перегрева
1007.1 1003.9
06 18.06 ЮЗ 3 12 км в посл. час дождь 9/3 600 м
[Cu hum Cs]
+31.3 +25.1 70 +45 +55 опасность
перегрева
1006.2 1003.0 0.0
09 18.06 ЮЗ 4 12 км слаб. дождь 9/3 600 м
[Sc Ac As Cs]
+30.5 +25.0 73 +44 +46 опасность
перегрева
1004.7 1001.5 0.1
12 18.06 ЮЗ 2 12 км {дождь} 10/3 600 м
[Sc Ac As Cs]
+29.0 +25.2 80 +42 +42 опасность
перегрева
1005.3 1002.0 +31.0 0.1
15 18.06 штиль 0 10 км 6/3 600 м
[Sc Ac As Cs]
+28.1 +25.0 83 +40 +40 очень
душно
1007.0 1003.8
18 18.06 штиль 0 10 км 8/0
[Ac trans Cs]
+27.2 +24.9 87 +39 +39 очень
душно
1006.9 1003.6
21 18.06 штиль 0 10 км 8/0
[Ac trans Cs]
+26.5 +24.5 89 +37 +37 очень
душно
1006.0 1002.7
00 19.06 штиль 0 10 км 8/1 600 м
[Sc Ac und Cs]
+26.6 +25.0 91 +38 +39 очень
душно
1006.9 1003.6 +23.1
03 19.06 ЮЗ 2 10 км 8/1 600 м
[Sc Ac As Cs]
+29.7 +25.0 76 +43 +51 опасность
перегрева
1008.5 1005.3
06 19.06 Ю 2 12 км 8/3 600 м
[Cu hum Ac lent Cs]
+32.6 +23.9 60 +44 +54 опасность
перегрева
1007.0 1003.7
09 19.06 ЮЗ 4 12 км 8/3 600 м
[Cu med, cong Ac und Cs]
+33.2 +24.4 60 +46 +48 опасность
перегрева
1005.3 1002.0
12 19.06 штиль 0 10 км слаб. ливневой дождь 8/3 600 м
[Cu med, cong Ac As Cs]
+29.3 +23.5 71 +40 +40 очень
душно
1006.0 1002.8 +33.8 0.0
15 19.06 штиль 0 10 км 6/1 600 м
[Sc Ac und Cs]
+27.6 +22.7 75 +37 +37 очень
душно
1007.9 1004.6
18 19.06 штиль 0 10 км 5/1 600 м
[Sc Ac trans Cs]
+26.7 +23.8 84 +37 +37 очень
душно
1008.0 1004.7
21 19.06 штиль 0 10 км 5/1 600 м
[Sc Ac trans Cs]
+26.3 +24.0 87 +36 +36 очень
душно
1007.0 1003.7
00 20.06 штиль 0 12 км 6/3 600 м
[Sc Ac trans Cs]
+26.5 +23.7 85 +36 +37 очень
душно
1008.3 1005.0 +22.8
03 20.06 ЮЗ 3 12 км 4/3 600 м
[Sc Cs]
+31.5 +23.9 64 +43 +52 опасность
перегрева
1008.9 1005.7
06 20.06 ЮЗ 4 12 км 5/3 600 м
[Cu hum Cs]
+33.0 +23.7 58 +44 +54 опасность
перегрева
1007.4 1004.2
09 20.06 ЮЗ 5 12 км 5/3 600 м
[Cu med, cong Cs]
+33.6 +24.2 58 +46 +49 опасность
перегрева
1005.6 1002.4
12 20.06 Ю 3 12 км 6/3 600 м
[Cu hum Ac trans Cs]
+31.2 +23.9 65 +43 +43 опасность
перегрева
1005.6 1002.4 +35.4
15 20.06 штиль 0 10 км 4/1 600 м
[Sc Cs]
+29.5 +24.6 75 +42 +42 опасность
перегрева
1008.0 1004.7
18 20.06 штиль 0 10 км 3/0
[Cs]
+28.0 +24.4 81 +39 +39 очень
душно
1007.6 1004.4
21 20.06 штиль 0 10 км 1/0
[Cs]
+27.3 +23.7 81 +37 +37 очень
душно
1006.6 1003.3
00 21.06 З 2 12 км 3/0
[Cs]
+27.4 +23.9 81 +38 +39 очень
душно
1007.7 1004.4 +23.5
03 21.06 СЗ 5 12 км 3/3 600 м
[Cu hum Ci sp]
+33.5 +23.4 56 +44 +50 опасность
перегрева
1008.2 1004.9
06 21.06 З 5 12 км 5/5 600 м
[Cu med, cong Ci ing]
+35.5 +23.5 50 +46 +52 опасность
перегрева
1006.4 1003.2
09 21.06 СЗ 4 12 км 4/4 600 м
[Cu med, cong Cs]
+37.1 +23.2 45 +47 +51 опасность
перегрева
1004.0 1000.8
12 21.06 СЗ 3 12 км 5/3 600 м
[Cu med, cong Cs]
+34.1 +24.0 56 +46 +46 опасность
перегрева
1004.1 1000.9 +37.1
15 21.06 ЮЗ 3 10 км ясно +31.3 +23.8 64 +42 +42 опасность
перегрева
1006.3 1003.1
18 21.06 ЮЗ 3 10 км ясно +29.5 +23.7 71 +40 +40 очень
душно
1006.4 1003.1
21 21.06 З 3 10 км 4/0
[Cs]
+28.9 +23.7 74 +40 +40 очень
душно
1006.0 1002.8
00 22.06 З 2 10 км 6/1 600 м
[Sc Ac trans Cs]
+28.3 +23.7 76 +39 +40 очень
душно
1006.3 1003.0 +24.8
03 22.06 З 4 12 км 4/1 600 м
[Sc Ci fib]
+33.2 +23.6 57 +44 +53 опасность
перегрева
1006.8 1003.6
06 22.06 З 5 12 км 3/3 600 м
[Cu hum Cs]
+36.4 +23.9 49 +48 +56 опасность
перегрева
1005.0 1001.8
09 22.06 СЗ 2 12 км 5/3 600 м
[Cb calv Ac trans Cs]
+37.9 +23.9 45 +49 +54 опасность
перегрева
1002.3 999.1
12 22.06 Ю 2 12 км 5/1 600 м
[Cb calv Ac lent Cs]
+34.4 +25.0 58 +48 +48 опасность
перегрева
1002.9 999.7 +37.8
15 22.06 З 2 10 км 4/1 600 м
[Sc Cs]
+32.2 +25.4 67 +46 +46 опасность
перегрева
1004.9 1001.7
18 22.06 З 2 10 км 3/0
[Cs]
+30.5 +24.8 72 +44 +44 опасность
перегрева
1004.9 1001.6
21 22.06 З 2 10 км 3/0
[Cs]
+29.6 +23.7 71 +41 +41 опасность
перегрева
1004.3 1001.1
00 23.06 З 4 12 км 1/0
[Cs]
+29.1 +24.1 74 +40 +41 очень
душно
1005.1 1001.8 +25.7
03 23.06 З 4 12 км 3/0
[Cs]
+34.2 +23.9 55 +46 +55 опасность
перегрева
1005.0 1001.8
06 23.06 Ю 6 12 км 4/3 600 м
[Cu hum Cs]
+37.4 +23.4 45 +48 +54 опасность
перегрева
1003.8 1000.6
09 23.06 Ю 5 12 км 8/3 600 м
[Cu med, cong Cs]
+37.2 +22.8 44 +47 +49 опасность
перегрева
1001.6 998.4
12 23.06 штиль 0 12 км 6/3 600 м
[Cu med, cong Cs]
+30.6 +23.4 65 +41 +41 опасность
перегрева
1003.2 1000.0 +38.0
15 23.06 штиль 0 10 км 6/3 600 м
[Cu med, cong Cs]
+29.5 +24.5 75 +42 +42 опасность
перегрева
1005.9 1002.7
18 23.06 штиль 0 10 км 6/4 600 м
[Sc Cs]
+28.8 +24.2 76 +40 +40 очень
душно
1005.7 1002.5
21 23.06 штиль 0 10 км 6/4 600 м
[Sc Cs]
+28.0 +24.4 81 +39 +39 очень
душно
1005.0 1001.7
00 24.06 З 3 12 км 10/3 600 м
[Cu Sc Ac As Cs]
+28.6 +24.4 78 +40 +41 очень
душно
1006.6 1003.3 +24.5
03 24.06 штиль 0 12 км в посл. час дождь 10/5 600 м
[Sc Ac und Cs]
+30.7 +25.0 72 +44 +49 опасность
перегрева
1007.6 1004.3 0.0
06 24.06 ЮЗ 5 12 км {дождь} 8/3 600 м
[Cu hum Ac trans Cs]
+34.4 +25.3 59 +48 +53 опасность
перегрева
1006.0 1002.8 0.0
09 24.06 СЗ 6 12 км 10/3 600 м
[Cu Sc Ac As Cs]
+33.9 +25.5 62 +49 +50 опасность
перегрева
1004.4 1001.2
12 24.06 З 3 12 км слаб. дождь 10/3 600 м
[Sc Ac As Cs]
+27.9 +24.4 81 +39 +39 очень
душно
1006.4 1003.2 +35.0 0.0
15 24.06 штиль 0 8000 м в посл. час дождь 10/3 600 м
[Sc Ac As]
+26.9 +25.6 93 +40 +40 очень
душно
1008.0 1004.7 0.9
18 24.06 штиль 0 8000 м дымка {дождь} 3/3 600 м
[Frnb]
+27.0 +25.6 92 +40 +40 очень
душно
1007.5 1004.2 0.9
21 24.06 штиль 0 9000 м дымка 3/0
[Cs]
+26.5 +25.2 93 +38 +38 очень
душно
1006.9 1003.6
00 25.06 штиль 0 10 км 8/1 600 м
[Sc Ac As Cs]
+26.7 +25.0 90 +38 +39 очень
душно
1008.6 1005.3 +23.0

 

Местоположение метеостанции Канчанабури (Таиланд): широта 14.02 долгота 99.53 высота над уровнем моря 29 м.

В архиве по умолчанию представлена погода в Канчанабури за последнюю неделю. Архивные данные за месяц целиком и за предыдущие месяцы, начиная с января 2011 года, Вы можете получить, выбрав интересующий диапазон дат из раскрывающегося списка и нажав кнопку "Ввод!".


*Определитесь, кто Вы:
робот инопланетянин человек

Внимание! Время в таблицах - всемирное. Для получения местного времени необходимо прибавить поправку, которая равна 7 ч.

Смотрите также архив погоды в соседних городах и на ближайших метеорологических станциях:

Погода в Накхонпатхоме (Таиланд) (47 км)
Погода в У-Тхонг Агромете (Таиланд) (48 км)
Погода в Суфанбури (Таиланд) (82 км)
Погода в Самутсонгкхраме (Таиланд) (87 км)
Погода в Пхетчабури (Таиланд) (112 км)
Погода в Бангкоке (Таиланд) (116 км)
Погода в Дон Муанг (Таиланд) (116 км)
Погода в Бангкоке 2 (Таиланд) (118 км)
Погода в Патхумтхани (Таиланд) (118 км)
Погода в Бангна Агромете (Таиланд) (124 км)

Пояснения к столбцам:

Ветер - указаны скорость ветра в м/с - средняя за 10 мин, порывы в срок и между сроками (в фигурных скобках) и направление, откуда дует ветер: С - северный, СВ - северо-восточный, В - восточный, ЮВ - юго-восточный, Ю - южный, ЮЗ - юго-западный, З - западный, СЗ - северо-западный.
Видимость - горизонтальная дальность видимости в метрах или километрах. При видимости от 1 до 10 км при отсутствии осадков обычно наблюдается дымка, при ухудшении видимости до 1 км и менее - туман. В сухую погоду видимость может ухудшаться дымом, пылью или мглою.
Явления - указаны атмосферные явления, наблюдавшиеся в срок или в последний час перед сроком; фигурными скобками обозначены явления, наблюдавшиеся между сроками (за 1-3 часа до срока); квадратными скобками обозначены град или гололедные отложения с указанием их диаметра в мм.
Облачность - указаны через наклонную черту общая и нижняя облачность в баллах и высота нижней границы облаков в метрах; квадратными скобками обозначены формы облаков: Ci - перистые, Cs - перисто-слоистые, Cc - перисто-кучевые, Ac - высококучевые, As - высокослоистые, Sc - слоисто-кучевые, Ns - слоисто-дождевые, Cu - кучевые, Cb - кучево-дождевые. Подробнее классификацию облаков см. в Атласе облаков (PDF).
T - Температура воздуха - температура, измеренная на высоте 2 м над землей.
Td - Температура точки росы - температура, при понижении до которой содержащийся в воздухе водяной пар достигнет насыщения.
f - Относительная влажность воздуха - влажноcть воздуха, измеренная на высоте 2 м над землей.
Te - Эффективная температура - температура, которую ощущает одетый по сезону человек в тени. Характеристика душности погоды. При расчете учитывается влияние влажности воздуха и скорости ветра на теплоощущения человека.
Tes - Эффективная температура на солнце - температура, которую ощущает человек, с поправкой на солнечный нагрев. Характеристика знойности погоды. Зависит от высоты солнца над горизонтом, облачности и скорости ветра. Ночью, в пасмурную погоду, а также при ветре 12 м/с и более поправка равна нулю.
P - Атмосферное давление - приведенное к уровню моря атмосферное давление.
Po - Атмосферное давление - измеренное на уровне метеостанции атмосферное давление.
Tmin - Минимальная температура - минимум температуры воздуха на высоте 2 м над землей.
Tmax - Максимальная температура - максимум температуры воздуха на высоте 2 м над землей.
R - Количество осадков - Количество выпавших осадков за период времени, мм. При наведении курсора мыши на число - период времени, за который выпало указанное количество осадков.
R24 - Количество осадков - Количество выпавших осадков за 24 часа, мм.
S - Снежный покров - Высота снежного покрова, см. При наведении курсора мыши на число - состояние снежного покрова и степень покрытия местности в баллах.